World > North America > United States > Arkansas
Hourly Weather in Cotter, ArkansasCotter, Arkansas Hourly Weather

Cotter, AR Hourly Weather

Hourly Weather Cotter, ArkansasHourly Weather in Cotter, AR
Lat: 36.28N, Lon: 92.52W  ICAO: KFLP
Web Search
Cotter Weather Warning NWS WEATHER ALERT FOR THE COTTER, AR AREA - Issued: 440 AM CST Thu Jan 27 2022 Cotter Weather Warning  

Our weather pages are very print friendly and they make great conversation starters.

Feedback

Cotter Hourly Weather

36 Hour Weather Scroll   °F Click to change Cotter hourly weather to Imperial units.Click to change Cotter hourly weather to Metric units. °C
Currently, Clear, temperature is 37°F3°C, dew point 27°F-3°C, humidity 67%. Wind direction is WNW at 8 mph13 km/h with visibility of 10.00 mi16 km. Barometric pressure is 30.36 in1028 mb.

Jan 27
10:00 PM

Jan 27
11:00 PM

Jan 28
MIDNIGHT

Jan 28
1:00 AM

Jan 28
2:00 AM

Jan 28
3:00 AM

Jan 28
4:00 AM

Jan 28
5:00 AM

Jan 28
6:00 AM

Jan 28
7:00 AM

Jan 28
8:00 AM

Jan 28
9:00 AM

Jan 28
10:00 AM

Jan 28
11:00 AM

Jan 28
NOON

Jan 28
1:00 PM

Jan 28
2:00 PM

Jan 28
3:00 PM

Jan 28
4:00 PM

Jan 28
5:00 PM

Jan 28
6:00 PM

Jan 28
7:00 PM

Jan 28
8:00 PM

Jan 28
9:00 PM

Jan 28
10:00 PM

Jan 28
11:00 PM

Jan 29
MIDNIGHT

Jan 29
1:00 AM

Jan 29
2:00 AM

Jan 29
6:00 AM

Jan 29
7:00 AM

Jan 29
8:00 AM

Jan 29
NOON

Jan 29
1:00 PM

Jan 29
2:00 PM


6:00 PM
Clear Clear Clear Clear Clear Clear Clear Clear Clear Clear Clear Clear Clear Clear Clear Clear Clear Clear Clear Clear Clear Clear Clear Clear Clear Clear Clear Clear Clear Clear Clear Clear Clear Clear
Clear Clear Clear Clear Clear Clear Clear Clear Clear Clear Clear Clear Clear Clear Clear Clear Clear Clear Clear Clear Clear Clear Clear Clear Clear Clear Clear Clear Clear Clear Clear Clear Clear Clear
28°F-2°C 27°F-3°C 25°F-4°C 24°F-4°C 23°F-5°C 22°F-6°C 21°F-6°C 21°F-6°C 20°F-7°C 22°F-6°C 25°F-4°C 27°F-3°C 32°F0°C 38°F3°C 43°F6°C 46°F8°C 49°F9°C 52°F11°C 51°F11°C 49°F9°C 48°F9°C 47°F8°C 45°F7°C 44°F7°C 43°F6°C 42°F6°C 41°F5°C 39°F4°C 36°F2°C 34°F1°C 40°F4°C 46°F8°C 52°F11°C 35°F2°C 17°F-8°C °F-18°C
- - - - - - - - - - - - - - - - - - - - - - - - - - - - - - - - - - - -
0% 0% 0% 0% 0% 0% 0% 0% 0% 0% 0% 0% 0% 0% 0% 0% 0% 0% 0% 0% 0% 0% 0% 0% 0% 0% 0% 0% 0% 0% 0% 0% 0% % % %
10°F-12°C 11°F-12°C 11°F-12°C 11°F-12°C 11°F-12°C 11°F-12°C 11°F-12°C 11°F-12°C 11°F-12°C 13°F-11°C 15°F-9°C 17°F-8°C 19°F-7°C 20°F-7°C 22°F-6°C 22°F-6°C 23°F-5°C 23°F-5°C 23°F-5°C 23°F-5°C 23°F-5°C 23°F-5°C 23°F-5°C 23°F-5°C 23°F-5°C 22°F-6°C 22°F-6°C 21°F-6°C 20°F-7°C 19°F-7°C 21°F-6°C 23°F-5°C 25°F-4°C 17°F-8°C 8°F-13°C °F-18°C
46% 50% 55% 57% 59% 62% 65% 65% 68% 68% 65% 65% 58% 48% 43% 38% 36% 32% 33% 36% 37% 38% 41% 43% 45% 45% 46% 48% 52% 54% 46% 40% 35% 47% 67% **
SSW SE NE NE N N N N N NE E SE SSE S S SSE SSE SW SSE S S S SSE SSE S SW SSW SSW W WNW NW NW NW SW ESE N
3 mph 1 mph 1 mph 1 mph 0 mph 0 mph 0 mph 0 mph 0 mph 0 mph 2 mph 2 mph 2 mph 8 mph 8 mph 8 mph 10 mph 10 mph 10 mph 4 mph 4 mph 4 mph 2 mph 2 mph 2 mph 3 mph 3 mph 3 mph 2 mph 2 mph 2 mph 7 mph 7 mph 7 mph mph 0 mph
10 mi16 km 10 mi16 km 10 mi16 km 10 mi16 km 10 mi16 km 10 mi16 km 10 mi16 km 10 mi16 km 10 mi16 km 10 mi16 km 10 mi16 km 10 mi16 km 10 mi16 km 10 mi16 km 10 mi16 km 10 mi16 km 10 mi16 km 10 mi16 km 10 mi16 km 10 mi16 km 10 mi16 km 10 mi16 km 10 mi16 km 10 mi16 km 10 mi16 km 10 mi16 km 10 mi16 km 10 mi16 km 10 mi16 km 10 mi16 km 10 mi16 km 10 mi16 km 10 mi16 km 5 mi8 km .5 mi1 km mi km
Hour (CST)
Weather
Clouds
Temperature
Precip. Type
POP
Dewpoint
Humidity
Wind Direction
Wind Speed
Visibility
POP = Probability of Precipitation. ** Indicates missing data/values from model statistics.

24 Hour Forecast

Tonight - Partly cloudy in the evening, becoming mostly cloudy. Lows in the mid 20s. Northwest winds 5 to 10 mph.
Friday - Sunny. Highs around 40. Northwest winds 5 to 10 mph in the morning, increasing to 10 to 15 mph in the afternoon. Gusts up to 25 mph.

48 Hour Forecast API Feed


Thu, Jan 27
10:00 pm

Thu, Jan 27
11:00 pm

Fri, Jan 28
Midnight

Fri, Jan 28
1:00 am

Fri, Jan 28
2:00 am

Fri, Jan 28
3:00 am

Fri, Jan 28
4:00 am

Fri, Jan 28
5:00 am

Fri, Jan 28
6:00 am

Fri, Jan 28
7:00 am

Fri, Jan 28
8:00 am

Fri, Jan 28
9:00 am

Fri, Jan 28
10:00 am

Fri, Jan 28
11:00 am

Fri, Jan 28
Noon

Fri, Jan 28
1:00 pm

Fri, Jan 28
2:00 pm

Fri, Jan 28
3:00 pm

Fri, Jan 28
4:00 pm

Fri, Jan 28
5:00 pm

Fri, Jan 28
6:00 pm

Fri, Jan 28
7:00 pm

Fri, Jan 28
8:00 pm

Fri, Jan 28
9:00 pm

Fri, Jan 28
10:00 pm

Fri, Jan 28
11:00 pm

Sat, Jan 29
Midnight

Sat, Jan 29
1:00 am

Sat, Jan 29
2:00 am

Sat, Jan 29
3:00 am

Sat, Jan 29
4:00 am

Sat, Jan 29
5:00 am

Sat, Jan 29
6:00 am

Sat, Jan 29
7:00 am

Sat, Jan 29
8:00 am

Sat, Jan 29
9:00 am

Sat, Jan 29
10:00 am

Sat, Jan 29
11:00 am

Sat, Jan 29
Noon

Sat, Jan 29
1:00 pm

Sat, Jan 29
2:00 pm

Sat, Jan 29
3:00 pm

Sat, Jan 29
4:00 pm

Sat, Jan 29
5:00 pm

Sat, Jan 29
6:00 pm

Sat, Jan 29
7:00 pm

Sat, Jan 29
8:00 pm

Sat, Jan 29
9:00 pm
ClearClearClearPartly CloudyOvercastOvercastPartly CloudyPartly CloudyMistMistMistPartly CloudyCloudyCloudyOvercastOvercastCloudyPartly CloudySunnySunnyClearClearClearClearClearClearClearClearClearClearClearClearClearClearSunnySunnyPartly CloudySunnySunnySunnySunnySunnySunnySunnyClearClearClearClear
Clear Clear Clear Partly cloudy Overcast Overcast Partly cloudy Partly cloudy Mist Mist Mist Partly cloudy Cloudy Cloudy Overcast Overcast Cloudy Partly cloudy Sunny Sunny Clear Clear Clear Clear Clear Clear Clear Clear Clear Clear Clear Clear Clear Clear Sunny Sunny Partly cloudy Sunny Sunny Sunny Sunny Sunny Sunny Sunny Clear Clear Clear Clear
31°F
-0°C
29°F
-2°C
28°F
-2°C
27°F
-3°C
27°F
-3°C
28°F
-2°C
27°F
-3°C
26°F
-4°C
25°F
-4°C
25°F
-4°C
24°F
-5°C
26°F
-4°C
30°F
-1°C
33°F
1°C
35°F
2°C
37°F
3°C
39°F
4°C
39°F
4°C
39°F
4°C
39°F
4°C
37°F
3°C
31°F
-0°C
27°F
-3°C
26°F
-4°C
25°F
-4°C
24°F
-4°C
23°F
-5°C
23°F
-5°C
23°F
-5°C
23°F
-5°C
23°F
-5°C
23°F
-5°C
23°F
-5°C
23°F
-5°C
23°F
-5°C
25°F
-4°C
30°F
-1°C
36°F
2°C
42°F
5°C
45°F
7°C
49°F
9°C
51°F
10°C
51°F
11°C
50°F
10°C
45°F
7°C
41°F
5°C
35°F
2°C
34°F
1°C
29°F
-2°C
27°F
-3°C
25°F
-4°C
24°F
-4°C
24°F
-5°C
24°F
-4°C
24°F
-4°C
24°F
-4°C
24°F
-5°C
23°F
-5°C
23°F
-5°C
23°F
-5°C
22°F
-5°C
23°F
-5°C
23°F
-5°C
23°F
-5°C
21°F
-6°C
20°F
-7°C
20°F
-7°C
21°F
-6°C
21°F
-6°C
20°F
-7°C
18°F
-8°C
17°F
-8°C
16°F
-9°C
15°F
-9°C
14°F
-10°C
14°F
-10°C
14°F
-10°C
14°F
-10°C
14°F
-10°C
14°F
-10°C
14°F
-10°C
15°F
-10°C
15°F
-10°C
15°F
-9°C
16°F
-9°C
20°F
-7°C
23°F
-5°C
24°F
-4°C
26°F
-4°C
27°F
-3°C
28°F
-3°C
31°F
-1°C
32°F
-0°C
33°F
1°C
29°F
-2°C
28°F
-2°C
30.36 in
1028 mb
30.39 in
1029 mb
30.39 in
1029 mb
30.39 in
1029 mb
30.39 in
1029 mb
30.39 in
1029 mb
30.39 in
1029 mb
30.39 in
1029 mb
30.39 in
1029 mb
30.42 in
1030 mb
30.45 in
1031 mb
30.45 in
1031 mb
30.45 in
1031 mb
30.45 in
1031 mb
30.45 in
1031 mb
30.42 in
1030 mb
30.39 in
1029 mb
30.36 in
1028 mb
30.36 in
1028 mb
30.36 in
1028 mb
30.39 in
1029 mb
30.42 in
1030 mb
30.42 in
1030 mb
30.42 in
1030 mb
30.42 in
1030 mb
30.42 in
1030 mb
30.42 in
1030 mb
30.42 in
1030 mb
30.42 in
1030 mb
30.39 in
1029 mb
30.39 in
1029 mb
30.36 in
1028 mb
30.36 in
1028 mb
30.36 in
1028 mb
30.36 in
1028 mb
30.36 in
1028 mb
30.36 in
1028 mb
30.3 in
1026 mb
30.27 in
1025 mb
30.21 in
1023 mb
30.15 in
1021 mb
30.12 in
1020 mb
30.09 in
1019 mb
30.06 in
1018 mb
30.06 in
1018 mb
30.06 in
1018 mb
30.06 in
1018 mb
30.06 in
1018 mb
90%91%89%90%90%86%90%93%94%95%95%89%73%65%61%55%48%46%46%49%52%63%68%70%69%68%68%68%68%68%68%68%69%69%69%65%56%51%47%43%40%39%40%47%60%73%76%79%
NWNWNWNWNWNWNWWNWWNWWNWWNWWNWNNWNNWNWNWNWNWNWNNWNNWNNWNNWNNWNNWNSWSSESSSESSESSESESSESESESSESSESSSSWSSWSSWSSWSSWSSWSSSE
5 mph
8 km/h
5 mph
8 km/h
5 mph
9 km/h
5 mph
8 km/h
4 mph
7 km/h
5 mph
8 km/h
4 mph
7 km/h
4 mph
7 km/h
4 mph
7 km/h
4 mph
7 km/h
4 mph
7 km/h
4 mph
7 km/h
8 mph
13 km/h
9 mph
14 km/h
10 mph
16 km/h
11 mph
17 km/h
12 mph
19 km/h
12 mph
19 km/h
11 mph
18 km/h
10 mph
16 km/h
9 mph
14 km/h
5 mph
8 km/h
4 mph
6 km/h
3 mph
5 km/h
2 mph
4 km/h
1 mph
2 km/h
0 mph
0 km/h
1 mph
1 km/h
1 mph
2 km/h
1 mph
1 km/h
2 mph
3 km/h
2 mph
3 km/h
2 mph
4 km/h
3 mph
4 km/h
3 mph
5 km/h
3 mph
5 km/h
4 mph
7 km/h
6 mph
9 km/h
6 mph
9 km/h
7 mph
11 km/h
8 mph
12 km/h
8 mph
13 km/h
9 mph
14 km/h
8 mph
13 km/h
6 mph
9 km/h
4 mph
7 km/h
4 mph
6 km/h
4 mph
6 km/h
0%0%0%0%0%0%0%0%0%0%0%0%0%0%0%0%0%0%0%0%0%0%0%0%0%0%0%0%0%0%0%0%0%0%0%0%0%0%0%0%0%0%0%0%0%0%0%0%
6 mi
10 km
6 mi
10 km
6 mi
10 km
6 mi
10 km
6 mi
10 km
6 mi
10 km
6 mi
10 km
6 mi
10 km
1 mi
2 km
1 mi
2 km
1 mi
2 km
6 mi
10 km
6 mi
10 km
6 mi
10 km
6 mi
10 km
6 mi
10 km
6 mi
10 km
6 mi
10 km
6 mi
10 km
6 mi
10 km
6 mi
10 km
6 mi
10 km
6 mi
10 km
6 mi
10 km
6 mi
10 km
6 mi
10 km
6 mi
10 km
6 mi
10 km
6 mi
10 km
6 mi
10 km
6 mi
10 km
6 mi
10 km
6 mi
10 km
6 mi
10 km
6 mi
10 km
6 mi
10 km
6 mi
10 km
6 mi
10 km
6 mi
10 km
6 mi
10 km
6 mi
10 km
6 mi
10 km
6 mi
10 km
6 mi
10 km
6 mi
10 km
6 mi
10 km
6 mi
10 km
6 mi
10 km

Day/Time
Weather
Condition
Temperature
Dew Point
Pressure
Humidity
Wind Direction
Wind Speed
Prob Precip %
Visibility
Prob Precip % = Probability of Precipitation.